Tucumcari, NM

9:27 PM MDT on August 23, 2017 (GMT -0600)
Tucumcari Municipal

Weather History for KTCC - January, 2014

Change the Weather History Date:

Friday, January 3, 2014

  Actual Average Record
Temperature  
Mean Temperature 50 °F -  
Max Temperature 68 °F 49 °F 76 °F (1927)
Min Temperature 33 °F 21 °F -8 °F (1911)
Degree Days  
Heating Degree Days 14    
Moisture  
Dew Point 15 °F    
Average Humidity 32    
Maximum Humidity 61    
Minimum Humidity 11    
Precipitation  
Precipitation 0.00 in - - ()
Sea Level Pressure  
Sea Level Pressure 29.84 in    
Wind  
Wind Speed 18 mph (SW)    
Max Wind Speed 26 mph    
Max Gust Speed 37 mph    
Visibility 10 miles    
Events      
Averages and records for this station are not official NWS values.
T = Trace of Precipitation, MM = Missing Value Source: NWS Daily Summary

Daily Weather History Graph

Daily Weather History Graph

Search for Another Location

Airport or City:

Trip Planner

Search our weather history database for the weather conditions in past years. The results will help you decide how hot, cold, wet, or windy it might be!

Date:

Astronomy

Jan. 03, 2014 Rise Set
Actual Time 7:03 AM MST 4:54 PM MST
Civil Twilight 6:35 AM MST 5:23 PM MST
Nautical Twilight 6:03 AM MST 5:54 PM MST
Astronomical Twilight 5:32 AM MST 6:25 PM MST
Moon 8:37 AM MST (1/3) 7:59 PM MST (1/3)
Length of Visible Light 10h 47m
Length of Day
9h 51m
Waxing Crescent, 8% of the Moon is Illuminated
Jan 3
Waxing Crescent
Jan 7
First Quarter
Jan 15
Full
Jan 23
Last Quarter
Jan 30
New

Hourly Weather History & Observations

Time (MST) Temp. Windchill Dew Point Humidity Pressure Visibility Wind Dir Wind Speed Gust Speed Precip Events Conditions
12:53 AM 36.0 °F 25.6 °F 21.9 °F 57% 30.10 in 10.0 mi SW 18.4 mph - N/A   Clear
1:53 AM 35.1 °F 24.8 °F 21.9 °F 59% 30.09 in 10.0 mi SW 17.3 mph - N/A   Clear
2:53 AM 35.1 °F 24.8 °F 21.9 °F 59% 30.06 in 10.0 mi SW 17.3 mph - N/A   Clear
3:53 AM 34.0 °F 23.8 °F 21.9 °F 61% 30.04 in 10.0 mi SW 16.1 mph - N/A   Clear
4:53 AM 34.0 °F 22.7 °F 21.9 °F 61% 30.04 in 10.0 mi SW 19.6 mph 28.8 mph N/A   Clear
5:53 AM 34.0 °F 23.0 °F 21.9 °F 61% 30.02 in 10.0 mi SW 18.4 mph 26.5 mph N/A   Clear
6:53 AM 33.1 °F 21.9 °F 21.0 °F 61% 30.02 in 10.0 mi SW 18.4 mph - N/A   Clear
7:53 AM 34.0 °F 26.0 °F 21.0 °F 59% 30.01 in 10.0 mi SSW 10.4 mph - N/A   Clear
8:53 AM 39.9 °F 33.9 °F 19.0 °F 43% 29.98 in 10.0 mi WSW 9.2 mph - N/A   Clear
9:53 AM 55.9 °F - 18.0 °F 23% 29.89 in 10.0 mi WSW 20.7 mph 31.1 mph N/A   Clear
10:53 AM 57.0 °F - 15.1 °F 19% 29.86 in 10.0 mi West 25.3 mph 35.7 mph N/A   Clear
11:53 AM 64.0 °F - 10.9 °F 13% 29.80 in 10.0 mi West 26.5 mph 34.5 mph N/A   Clear
12:53 PM 66.0 °F - 10.9 °F 12% 29.75 in 10.0 mi West 25.3 mph 33.4 mph N/A   Clear
1:53 PM 68.0 °F - 12.0 °F 11% 29.70 in 10.0 mi WSW 23.0 mph 34.5 mph N/A   Clear
2:53 PM 68.0 °F - 10.9 °F 11% 29.68 in 10.0 mi WSW 25.3 mph 36.8 mph N/A   Clear
3:53 PM 64.0 °F - 17.1 °F 16% 29.70 in 10.0 mi SW 16.1 mph 26.5 mph N/A   Clear
4:53 PM 60.1 °F - 12.0 °F 15% 29.69 in 10.0 mi SW 12.7 mph - N/A   Clear
5:53 PM 57.9 °F - 8.1 °F 14% 29.69 in 10.0 mi SW 20.7 mph 27.6 mph N/A   Clear
6:53 PM 55.0 °F - 10.0 °F 17% 29.69 in 10.0 mi WSW 21.9 mph - N/A   Clear
7:53 PM 55.0 °F - 10.0 °F 17% 29.68 in 10.0 mi West 25.3 mph - N/A   Clear
8:53 PM 53.1 °F - 8.1 °F 16% 29.68 in 10.0 mi West 23.0 mph - N/A   Clear
9:53 PM 48.9 °F - 9.0 °F 20% 29.67 in 10.0 mi SW 12.7 mph - N/A   Clear
10:53 PM 48.0 °F - 9.0 °F 21% 29.66 in 10.0 mi WSW 13.8 mph - N/A   Clear
11:53 PM 46.9 °F - 10.0 °F 22% 29.65 in 10.0 mi SW 6.9 mph - N/A   Clear